Jackson, WY

9:47 PM MST on November 24, 2017 (GMT -0700)
Jackson Hole

Weather History for KJAC - February, 2014

Change the Weather History Date:

Tuesday, February 25, 2014

  Actual Average Record
Temperature  
Mean Temperature 24 °F -  
Max Temperature 37 °F 33 °F 51 °F (1981)
Min Temperature 12 °F 6 °F -23 °F (2003)
Degree Days  
Heating Degree Days 40    
Moisture  
Dew Point 24 °F    
Average Humidity 75    
Maximum Humidity 100    
Minimum Humidity 41    
Precipitation  
Precipitation 0.00 in - - ()
Sea Level Pressure  
Sea Level Pressure 30.00 in    
Wind  
Wind Speed 13 mph (SSW)    
Max Wind Speed 24 mph    
Max Gust Speed 31 mph    
Visibility 9 miles    
Events Rain , Snow    
Averages and records for this station are not official NWS values.
T = Trace of Precipitation, MM = Missing Value Source: NWS Daily Summary

Daily Weather History Graph

Daily Weather History Graph

Search for Another Location

Airport or City:

Trip Planner

Search our weather history database for the weather conditions in past years. The results will help you decide how hot, cold, wet, or windy it might be!

Date:

Astronomy

Feb. 25, 2014 Rise Set
Actual Time 7:05 AM MST 6:06 PM MST
Civil Twilight 6:37 AM MST 6:35 PM MST
Nautical Twilight 6:03 AM MST 7:08 PM MST
Astronomical Twilight 5:30 AM MST 7:42 PM MST
Moon 4:09 AM MST 2:11 PM MST
Length of Visible Light 11h 58m
Length of Day
11h 00m
Waning Crescent, 17% of the Moon is Illuminated
Feb 25
Waning Crescent
Mar 1
New
Mar 8
First Quarter
Mar 16
Full
Mar 23
Last Quarter

Hourly Weather History & Observations

Time (MST) Temp. Windchill Dew Point Humidity Pressure Visibility Wind Dir Wind Speed Gust Speed Precip Events Conditions
12:15 AM 37.4 °F 29.8 °F 26.6 °F 65% 29.97 in 10.0 mi South 11.5 mph - N/A   Overcast
12:35 AM 37.4 °F 28.2 °F 28.4 °F 70% 29.96 in 10.0 mi SSW 16.1 mph - N/A   Overcast
12:55 AM 37.4 °F 28.9 °F 28.4 °F 70% 29.97 in 10.0 mi SSW 13.8 mph - N/A   Overcast
1:15 AM 37.4 °F 27.2 °F 28.4 °F 70% 29.97 in 10.0 mi South 19.6 mph 29.9 mph N/A   Overcast
1:35 AM 37.4 °F 27.8 °F 30.2 °F 75% 29.96 in 10.0 mi South 17.3 mph - N/A   Overcast
1:55 AM 37.4 °F 29.3 °F 30.2 °F 75% 29.97 in 10.0 mi South 12.7 mph - N/A   Overcast
2:15 AM 37.4 °F 28.5 °F 30.2 °F 75% 29.96 in 10.0 mi South 15.0 mph - N/A   Overcast
2:35 AM 37.4 °F 28.9 °F 30.2 °F 75% 29.96 in 10.0 mi South 13.8 mph - N/A   Overcast
2:55 AM 37.4 °F 27.2 °F 28.4 °F 70% 29.95 in 10.0 mi South 19.6 mph 27.6 mph N/A   Overcast
3:15 AM 37.4 °F 26.9 °F 30.2 °F 75% 29.95 in 10.0 mi South 20.7 mph - N/A   Overcast
3:35 AM 35.6 °F 25.9 °F 32.0 °F 87% 29.94 in 7.0 mi SSE 16.1 mph 23.0 mph N/A   Overcast
3:55 AM 35.6 °F 29.2 °F 32.0 °F 87% 29.95 in 10.0 mi SSW 8.1 mph - N/A   Overcast
4:15 AM 35.6 °F 25.5 °F 30.2 °F 81% 29.94 in 10.0 mi South 17.3 mph - N/A   Overcast
4:35 AM 37.4 °F 28.9 °F 30.2 °F 75% 29.94 in 10.0 mi South 13.8 mph - N/A   Overcast
4:55 AM 35.6 °F 27.5 °F 30.2 °F 81% 29.94 in 10.0 mi South 11.5 mph - N/A   Overcast
5:15 AM 35.6 °F 27.1 °F 32.0 °F 87% 29.93 in 10.0 mi South 12.7 mph 16.1 mph N/A   Overcast
5:35 AM 35.6 °F 26.6 °F 32.0 °F 87% 29.92 in 10.0 mi South 13.8 mph - N/A   Overcast
5:55 AM 35.6 °F 28.6 °F 32.0 °F 87% 29.93 in 10.0 mi SSW 9.2 mph - N/A   Overcast
6:15 AM 35.6 °F 26.2 °F 32.0 °F 87% 29.92 in 10.0 mi South 15.0 mph - N/A   Overcast
6:35 AM 35.6 °F 28.6 °F 32.0 °F 87% 29.93 in 10.0 mi South 9.2 mph - N/A   Overcast
6:51 AM 35.6 °F 27.5 °F 32.0 °F 87% 29.93 in 6.0 mi South 11.5 mph 16.1 mph N/A   Overcast
6:55 AM 35.6 °F 26.6 °F 32.0 °F 87% 29.93 in 10.0 mi South 13.8 mph - N/A   Overcast
7:52 AM 35.6 °F 28.0 °F 33.8 °F 93% 29.93 in 7.0 mi South 10.4 mph - N/A   Overcast
8:51 AM 35.6 °F 28.6 °F 33.8 °F 93% 29.93 in 7.0 mi South 9.2 mph - N/A   Drizzle
9:51 AM 35.6 °F 28.6 °F 33.8 °F 93% 29.95 in 6.0 mi South 9.2 mph - N/A Rain , Snow Light Snow
10:51 AM 37.4 °F 33.8 °F 33.8 °F 87% 29.97 in 5.0 mi South 4.6 mph - N/A Rain Light Rain
11:56 AM 35.6 °F 29.9 °F 33.8 °F 93% 30.00 in 5.0 mi WNW 6.9 mph - N/A Rain Light Rain
12:11 PM 35.6 °F 27.5 °F 33.8 °F 93% 30.00 in 2.0 mi NW 11.5 mph - N/A Snow Light Snow
12:32 PM 33.8 °F 27.7 °F 33.8 °F 100% 30.00 in 4.0 mi West 6.9 mph - N/A Snow Light Snow
12:51 PM 37.4 °F 27.5 °F 28.4 °F 70% 29.99 in 10.0 mi WSW 18.4 mph - N/A   Mostly Cloudy
1:56 PM 37.4 °F 26.1 °F 24.8 °F 60% 29.99 in 10.0 mi WNW 24.2 mph 31.1 mph N/A   Partly Cloudy
2:59 PM 37.4 °F 30.8 °F 21.2 °F 52% 30.03 in 10.0 mi NNE 9.2 mph - N/A   Scattered Clouds
3:51 PM 35.6 °F 26.6 °F 21.2 °F 56% 30.04 in 10.0 mi North 13.8 mph - N/A   Clear
4:59 PM 33.8 °F 22.5 °F 12.2 °F 41% 30.06 in 10.0 mi NNW 19.6 mph - N/A   Clear
5:55 PM 30.2 °F 18.1 °F 12.2 °F 47% 30.07 in 10.0 mi NNW 18.4 mph - N/A   Clear
6:56 PM 28.4 °F 16.2 °F 10.4 °F 47% 30.09 in 10.0 mi NNW 17.3 mph - N/A   Clear
7:51 PM 26.6 °F 15.2 °F 10.4 °F 51% 30.09 in 10.0 mi NNW 13.8 mph - N/A   Clear
8:55 PM 21.2 °F 9.5 °F 10.4 °F 63% 30.10 in 10.0 mi North 11.5 mph - N/A   Clear
9:15 PM 21.2 °F 16.4 °F 10.4 °F 63% 30.11 in 10.0 mi NE 3.5 mph - N/A   Clear
9:35 PM 19.4 °F - 10.4 °F 68% 30.12 in - Calm Calm - N/A   Clear
9:55 PM 21.2 °F 16.4 °F 8.6 °F 58% 30.12 in - North 3.5 mph - N/A   Clear
10:15 PM 21.2 °F - 8.6 °F 58% 30.12 in 10.0 mi Calm Calm - N/A   Clear
10:35 PM 17.6 °F 9.3 °F 8.6 °F 68% 30.12 in - North 5.8 mph - N/A   Clear
10:55 PM 14.0 °F 2.0 °F 8.6 °F 79% 30.12 in 10.0 mi North 9.2 mph - N/A   Clear
11:15 PM 12.2 °F 1.7 °F 6.8 °F 79% 30.12 in 10.0 mi NNE 6.9 mph - N/A   Clear
11:35 PM 12.2 °F -0.2 °F 6.8 °F 79% 30.12 in 10.0 mi North 9.2 mph - N/A   Clear
11:55 PM 12.2 °F -0.2 °F 6.8 °F 79% 30.12 in 10.0 mi North 9.2 mph - N/A   Clear